Simultaneous Nadir Overpasses (SNOs) Predictions

Prediction of SNOs between TERRA and METOP-C Satellite Orbit:

Table of predicted SNOs for the next 14.0 days since TLE Epoch: 10/26/2019
Index Date (TERRA) Time (TERRA) Lat,Lon (TERRA) SZA (TERRA ) Date (METOP-C) Time (METOP-C) Lat,Lon (METOP-C) SZA (METOP-C ) Distance(km) Time Diff (sec)
1 10/27/2019 17:54:08 -81.31, 138.87 82.67 10/27/2019 17:53:47 -81.32, 138.78 82.69 1.64 21
2 10/27/2019 18:43:34 81.32, -53.40 97.36 10/27/2019 18:44:26 81.32, -53.43 97.39 0.88 52
3 10/30/2019 13:28:22 -81.33,-154.43 81.70 10/30/2019 13:28:07 -81.32,-154.57 81.72 2.42 15
4 10/30/2019 14:17:48 81.33, 13.27 98.33 10/30/2019 14:18:46 81.33, 13.24 98.35 0.52 58
5 11/02/2019 09:02:38 -81.32, -88.05 80.80 11/02/2019 09:02:28 -81.32, -87.92 80.79 2.32 10
6 11/02/2019 09:52:04 81.32, 79.62 99.22 11/02/2019 09:53:08 81.32, 79.53 99.24 1.47 64
7 11/05/2019 04:36:54 -81.32, -21.63 79.93 11/05/2019 04:36:50 -81.32, -21.66 79.94 0.54 4
8 11/05/2019 05:26:20 81.32, 146.02 100.08 11/05/2019 05:27:29 81.33, 146.21 100.14 3.26 69
9 11/07/2019 23:21:42 81.32,-122.84 100.89 11/07/2019 23:20:30 81.32,-122.78 100.86 1.06 72
10 11/08/2019 00:11:09 -81.32, 44.85 79.09 11/08/2019 00:11:10 -81.32, 44.99 79.08 2.28 1




NCC Satellite Simultaneous Nadir Overpasses (SNOs) Prediction Service
